Simultaneous Nadir Overpasses (SNOs) Predictions

Prediction of SNOs between LANDSAT-8 and METOP-A Satellite Orbit:

Table of predicted SNOs for the next 14.0 days since TLE Epoch: 4/9/2016
Index Date (LANDSAT-8) Time (LANDSAT-8) Lat,Lon (LANDSAT-8) SZA (LANDSAT-8 ) Date (METOP-A) Time (METOP-A) Lat,Lon (METOP-A) SZA (METOP-A ) Distance(km) Time Diff (sec)
1 04/10/2016 18:19:58 81.11, -55.73 74.80 04/10/2016 18:19:06 81.11, -55.84 74.76 2.09 52
2 04/10/2016 19:09:24 -81.13, 112.19 105.18 04/10/2016 19:09:45 -81.14, 112.37 105.15 3.13 21
3 04/13/2016 13:54:12 81.12, 10.78 73.80 04/13/2016 13:53:29 81.11, 10.81 73.79 0.63 43
4 04/13/2016 14:43:38 -81.14, 178.72 106.17 04/13/2016 14:44:09 -81.13, 178.66 106.16 1.20 31
5 04/16/2016 09:28:26 81.12, 77.22 72.82 04/16/2016 09:27:53 81.11, 77.06 72.79 2.90 33
6
